Simultaneous Nadir Overpasses (SNOs) Predictions

Prediction of SNOs between GOES-16 and TERRA Satellite Orbit:

Table of predicted SNOs for the next 14.0 days since TLE Epoch: 8/29/2025
Index Date Time (GOES-16) GOES-16 Lat,Lon TERRA Lat,Lon Distance(km) Time Diff (sec)
1 08/31/2025 16:08:56 0.03,-104.71 -0.22,-103.64 121.74 80
2 09/01/2025 04:31:11 -0.04,-104.66 -0.81,-108.40 424.60 80
3 09/03/2025 04:09:14 -0.04,-104.65 0.15,-103.76 101.86 80
4 09/03/2025 16:31:18 0.05,-104.69 0.84,-108.48 430.71 80
5 09/05/2025 16:09:22 0.04,-104.68 -0.14,-103.84 95.97 80
6 09/06/2025 04:31:36 -0.05,-104.64 -0.86,-108.60 450.02 80
7 09/08/2025 04:09:38 -0.04,-104.63 0.08,-103.95 76.95 80
8 09/08/2025 16:31:43 0.05,-104.67 0.91,-108.68 455.71 80
9 09/10/2025 16:09:46 0.05,-104.66 -0.11,-104.04 71.49 80
10 09/11/2025 04:32:00 -0.06,-104.62 -0.93,-108.80 474.23 80
